TimeCDT,TemperatureF,Dew PointF,Humidity,Sea Level PressureIn,VisibilityMPH,Wind Direction,Wind SpeedMPH,Gust SpeedMPH,PrecipitationIn,Events,Conditions,WindDirDegrees,DateUTC
12:25 AM,50.0,48.2,94,30.21,6.0,North,10.4,-,0.01,Rain,Light Rain,360,2012-10-08 05:25:00
12:37 AM,50.0,48.2,94,30.22,4.0,North,11.5,-,0.03,Rain,Rain,360,2012-10-08 05:37:00
12:44 AM,48.2,48.2,100,30.21,4.0,North,10.4,-,0.04,Rain,Light Rain,360,2012-10-08 05:44:00
12:56 AM,48.9,48.0,97,30.21,6.0,North,8.1,-,0.04,Rain,Light Rain,10,2012-10-08 05:56:00
1:26 AM,48.2,48.2,100,30.22,6.0,North,8.1,-,0.00,Rain,Light Rain,10,2012-10-08 06:26:00
1:33 AM,48.2,48.2,100,30.22,6.0,NNE,8.1,-,0.01,Rain,Light Rain,20,2012-10-08 06:33:00
1:56 AM,48.9,48.0,97,30.22,6.0,NE,6.9,-,0.01,,Overcast,50,2012-10-08 06:56:00
2:08 AM,48.2,46.4,93,30.22,6.0,NNE,6.9,-,N/A,,Overcast,30,2012-10-08 07:08:00
2:21 AM,48.2,46.4,93,30.22,6.0,NNE,6.9,-,N/A,,Overcast,20,2012-10-08 07:21:00
2:56 AM,48.9,46.9,93,30.20,7.0,NNE,9.2,-,N/A,,Overcast,20,2012-10-08 07:56:00
3:24 AM,48.2,48.2,100,30.21,10.0,North,5.8,-,N/A,,Overcast,10,2012-10-08 08:24:00
3:34 AM,48.2,48.2,100,30.21,10.0,NNE,4.6,-,N/A,,Overcast,30,2012-10-08 08:34:00
3:56 AM,48.9,46.9,93,30.20,10.0,NNE,6.9,-,N/A,,Overcast,30,2012-10-08 08:56:00
4:22 AM,48.2,46.4,93,30.20,10.0,NE,5.8,-,N/A,,Overcast,40,2012-10-08 09:22:00
4:37 AM,48.2,46.4,93,30.20,10.0,NNE,6.9,-,N/A,,Overcast,30,2012-10-08 09:37:00
4:44 AM,48.2,46.4,93,30.20,10.0,NNE,8.1,-,N/A,,Overcast,20,2012-10-08 09:44:00
4:56 AM,48.9,46.9,93,30.20,10.0,NNE,6.9,-,N/A,,Overcast,30,2012-10-08 09:56:00
5:13 AM,48.2,46.4,93,30.21,10.0,NNE,5.8,-,N/A,,Overcast,30,2012-10-08 10:13:00
5:40 AM,48.2,46.4,93,30.21,10.0,NNE,5.8,-,N/A,,Overcast,20,2012-10-08 10:40:00
5:56 AM,48.9,46.9,93,30.21,10.0,NNE,5.8,-,N/A,,Overcast,30,2012-10-08 10:56:00
6:56 AM,48.9,46.0,90,30.22,10.0,NNE,6.9,-,N/A,,Overcast,30,2012-10-08 11:56:00
7:56 AM,48.9,46.0,90,30.23,10.0,North,5.8,-,N/A,,Overcast,10,2012-10-08 12:56:00
8:56 AM,51.1,46.0,83,30.25,10.0,NNE,5.8,-,N/A,,Mostly Cloudy,20,2012-10-08 13:56:00
9:56 AM,54.0,44.1,69,30.26,10.0,ENE,8.1,-,N/A,,Partly Cloudy,60,2012-10-08 14:56:00
10:56 AM,57.0,43.0,59,30.26,10.0,Variable,5.8,-,N/A,,Scattered Clouds,0,2012-10-08 15:56:00
11:56 AM,59.0,43.0,55,30.25,10.0,NE,5.8,-,N/A,,Scattered Clouds,40,2012-10-08 16:56:00
12:56 PM,61.0,43.0,52,30.22,10.0,Variable,3.5,-,N/A,,Scattered Clouds,0,2012-10-08 17:56:00
1:56 PM,61.0,43.0,52,30.19,10.0,Variable,3.5,-,N/A,,Scattered Clouds,0,2012-10-08 18:56:00
2:56 PM,64.4,44.6,49,30.17,10.0,NNE,10.4,-,N/A,,Scattered Clouds,30,2012-10-08 19:56:00
3:56 PM,64.0,44.1,48,30.15,10.0,East,4.6,-,N/A,,Scattered Clouds,80,2012-10-08 20:56:00
4:56 PM,64.0,43.0,46,30.13,10.0,ENE,5.8,-,N/A,,Scattered Clouds,60,2012-10-08 21:56:00
5:56 PM,62.1,44.1,52,30.12,10.0,East,4.6,-,N/A,,Scattered Clouds,80,2012-10-08 22:56:00
6:56 PM,55.0,45.0,69,30.12,10.0,East,5.8,-,N/A,,Scattered Clouds,90,2012-10-08 23:56:00
7:56 PM,53.1,45.0,74,30.13,10.0,East,6.9,-,N/A,,Partly Cloudy,90,2012-10-09 00:56:00
8:56 PM,51.8,46.4,82,30.15,10.0,East,5.8,-,N/A,,Partly Cloudy,100,2012-10-09 01:56:00
9:56 PM,50.0,46.0,86,30.15,10.0,SE,4.6,-,N/A,,Partly Cloudy,140,2012-10-09 02:56:00
10:56 PM,48.9,46.0,90,30.14,10.0,SE,3.5,-,N/A,,Scattered Clouds,140,2012-10-09 03:56:00
11:56 PM,48.0,45.0,89,30.14,10.0,Calm,Calm,-,N/A,,Partly Cloudy,0,2012-10-09 04:56:00